Regional Weather Roundup
Issued by NWS

Home | Current Version | Previous Version | Text Only | Print | Product List | Glossary Off
Versions: 1 2 3 4 5 6 7 8 9 10 11 12 13 14 15 16 17 18 19 20 21 22 23 24 25 26 27 28 29 30 31 32 33 34 35 36 37 38 39 40 41 42 43 44 45 46 47 48 49 50

658
ASUS43 KFSD 220010
RWRSD

WEATHER ROUNDUP FOR SOUTH DAKOTA
NATIONAL WEATHER SERVICE SIOUX FALLS SD
600 PM CST SUN JAN 21 2018

NOTE: "FAIR" INDICATES FEW OR NO CLOUDS BELOW 12,000 FEET WITH NO
SIGNIFICANT WEATHER AND/OR OBSTRUCTIONS TO VISIBILITY.


SDZ001>005-009-010-012>017-220100-
NORTHWEST AND NORTH CENTRAL SOUTH DAKOTA

CITY           SKY/WX    TMP DP  RH WIND       PRES   REMARKS
BUFFALO          N/A     29  21  72 NW13      29.93R WCI  19
FAITH            N/A     31  25  78 N5        30.00R WCI  26
MOBRIDGE       MOCLDY    29  24  82 N6        29.99R WCI  23
$$

SDZ012>016-024>037-041>051-057-063-072>074-220100-
SOUTHWEST AND SOUTH CENTRAL SOUTH DAKOTA

CITY           SKY/WX    TMP DP  RH WIND       PRES   REMARKS
RAPID CTY ARPT CLOUDY    32  23  69 N14       29.99R WCI  22
PIERRE         CLOUDY    32  26  78 N10       30.00R WCI  24
CUSTER         CLOUDY    24  16  71 N5        29.92R WCI  18
ELLSWORTH AFB  CLOUDY    33  24  69 N12       29.98R WCI  24
PHILIP         CLOUDY    32  30  92 N3        30.00R
PINE RIDGE     CLOUDY    28  27  96 CALM      29.98R
SPEARFISH        N/A     28  21  74 W7        30.00R WCI  21
WINNER         LGT SNOW  33  31  92 N15       29.95R FOG     WCI  23
$$

SDZ004>011-016>023-039-040-220100-
NORTHEAST SOUTH DAKOTA

CITY           SKY/WX    TMP DP  RH WIND       PRES   REMARKS
ABERDEEN       CLOUDY    30  26  85 N9        30.03R WCI  22
WATERTOWN      CLOUDY    32  27  81 NE7       29.96R WCI  26
BROOKINGS      CLOUDY    34  29  82 N13       29.93R WCI  25
SISSETON         N/A     28  25  88 N10       30.02R WCI  19
$$

SDZ017-020-022-023-036>040-048>070-220100-
SOUTHEAST SOUTH DAKOTA

CITY           SKY/WX    TMP DP  RH WIND       PRES   REMARKS
SIOUX FALLS    CLOUDY    36  32  85 NE21G28   29.87F
HURON          CLOUDY    31  29  92 N13       29.97R WCI  21
CHAMBERLAIN    FLURRIES  33  33 100 NW10G17   29.96R WCI  25
MITCHELL       CLOUDY    34  32  92 N13       29.96R WCI  25
YANKTON        CLOUDY    38  31  76 N22G29    29.84R
$$

ABBREVIATIONS USED IN REMARKS
   TC - TEMPERATURE IN CELSIUS
  WCI - WIND CHILL INDEX
   HX - HEAT INDEX
  VSB - VISIBILITY





USA.gov is the U.S. government's official web portal to all federal, state and local government web resources and services.